Location: The Saddle
(36.8333°N, 80.3417°W)
Time: 14:47:30
(UTC-05:00)

A-11 Canister half - Pass Details

Date: 11 December 2023
Orbit: 1526 x 1682 km, 47.3° (Epoch: 28 February)

Event Time Altitude Azimuth Distance (km) Brightness Sun altitude
Rises 18:50:32 0° 260° (W) 4,911 13.2 -20.4°
Reaches altitude 10° 18:53:47 10° 264° (W) 3,933 12.3 -21.1°
Maximum altitude 19:03:43 56° 342° (NNW) 1,943 9.5 -23.0°
Enters shadow 19:09:00 30° 45° (NE) 2,667 9.8 -24.0°
Drops below altitude 10° 19:13:37 10° 59° (ENE) 3,920 - -24.9°
Sets 19:16:53 0° 64° (ENE) 4,893 - -25.6°
